Flag for Spain Weather past 2 weeks in Mahón, Menorca, Spain

Now
73 °F

Mild.


Feels Like: 74 °F
Forecast: 68 / 82 °F
Wind: 7 mph from Northeast

Location: Menorca / Mahon

Current Time: Aug 31, 2014 at 4:42:07 AM

Latest Report: Aug 31, 2014 at 4:00 AM


Visibility: N/A

Pressure: 30.01 "Hg

Humidity: 73%

Dew point: 64 °F

Location of MahónLocation

Historic Weather in Mahón — Graph

°F

Mahón temperature yesterday

Maximum temperature yesterday: 85 °F (at 2:00 PM)
Minimum temperature yesterday: 74 °F (at 4:00 AM)
Average temperature yesterday: 78 °F

Past Weeks' High & Low Weather Summary

 TemperatureHumidityPressure
High88 °F (Aug 29, 3:00 PM)95% (Aug 27, 4:00 AM)30.16 "Hg (Aug 27, 4:00 AM)
Low63 °F (Aug 24, 6:00 AM)36% (Aug 17, 2:00 PM)29.84 "Hg (Aug 19, 6:00 AM)
Average76 °F69%30.02 "Hg
* Reported Aug 16 3:00 AM — Aug 31 3:00 AM, Mahón, Weather by CustomWeather, © 2014

Note: Actual official high and low records may vary slightly from our data, if they occured in-between our weather recording intervals... More about our weather records

Advertising

Mahón weather history for previous 24 hours

 ConditionsComfort  
Time TempWeatherWind HumidityBarometerVisibility
3:00 AM
Aug 31
75 °FMild.6 mph68%30.02 "HgN/A
2:00 AM76 °FPassing clouds.6 mph68%30.03 "Hg12 mi
1:00 AM76 °FMild.9 mph68%30.03 "HgN/A
12:00 AM76 °FMild.12 mph70%30.03 "HgN/A
11:00 PM
Aug 30
76 °FOvercast.14 mph74%30.02 "Hg12 mi
10:00 PM76 °FMild.15 mph77%30.01 "HgN/A
9:00 PM76 °FMild.14 mph77%30.01 "HgN/A
8:00 PM77 °FOvercast.15 mph78%30.00 "Hg12 mi
7:00 PM78 °FWarm.15 mph73%30.00 "HgN/A
6:00 PM81 °FWarm.14 mph66%30.00 "HgN/A
5:00 PM82 °FPartly sunny.15 mph64%30.00 "Hg14 mi
4:00 PM83 °FWarm.16 mph62%30.00 "HgN/A
3:00 PM84 °FPartly sunny.16 mph60%30.02 "Hg15 mi
2:00 PM85 °FScattered clouds.15 mph57%30.02 "Hg14 mi
1:00 PM84 °FWarm.15 mph61%30.03 "HgN/A
12:00 PM82 °FWarm.15 mph63%30.04 "HgN/A
11:00 AM82 °FPassing clouds.16 mph64%30.04 "Hg16 mi
10:00 AM80 °FWarm.17 mph68%30.03 "HgN/A
9:00 AM78 °FPassing clouds.17 mph75%30.03 "Hg16 mi
8:00 AM75 °FPassing clouds.15 mph81%30.02 "Hg14 mi
7:00 AM74 °FMild.15 mph85%30.01 "HgN/A
6:00 AM74 °FMild.15 mph83%30.01 "HgN/A
5:00 AM75 °FPassing clouds.14 mph89%30.01 "Hg9 mi
4:00 AM74 °FMild.12 mph86%30.02 "HgN/A
Weather by CustomWeather, © 2014

See weather overviewHow to use our weather pages